CW3583 Weather Reports


time (UTC)temp
F
wind
direction
speed
knots
gust
knots
rain 1hr
in
rain 24hr
in
rain mn
in
humidity
%
barometer
mb
20260508042803 59 103 0.9 1.7 0.00 0.17 0.00 74 1008.2
20260508042306 60 103 0.9 4.3 0.00 0.17 0.00 73 1008.2
20260508041806 59 133 2.6 4.3 0.00 0.17 0.00 73 1008.4
20260508040307 59 204 1.7 4.3 0.00 0.17 0.00 74 1008.5
20260508035803 59 128 0.0 4.3 0.00 0.17 0.00 74 1008.5
20260508035306 59 128 1.7 2.6 0.00 0.17 0.00 73 1008.5
20260508034806 60 128 1.7 5.2 0.00 0.17 0.00 74 1008.5
20260508032804 60 170 2.6 6.1 0.00 0.17 0.00 72 1008.6
20260508031807 59 177 2.6 4.3 0.00 0.17 0.00 74 1008.7
20260508031303 60 171 4.3 6.1 0.00 0.17 0.00 74 1008.7
20260508030804 61 155 2.6 5.2 0.00 0.17 0.00 73 1008.8
20260508030306 61 156 2.6 6.1 0.00 0.17 0.00 72 1008.8
20260508025803 61 145 1.7 5.2 0.00 0.17 0.00 71 1008.8
20260508025306 61 166 1.7 4.3 0.00 0.17 0.00 71 1008.8
20260508024304 61 167 2.6 7.0 0.00 0.17 0.00 72 1008.9
20260508023804 60 185 2.6 7.0 0.00 0.17 0.00 73 1008.9
20260508023306 60 186 2.6 7.0 0.00 0.17 0.00 74 1008.9
20260508021806 60 175 2.6 6.1 0.00 0.17 0.00 76 1009.3
20260508021304 60 152 2.6 4.3 0.00 0.17 0.00 77 1009.2
20260508020306 59 160 4.3 7.0 0.00 0.17 0.00 78 1009.2
20260508010803 58 182 1.7 4.3 0.00 0.17 0.00 82 1009.5
20260508010306 58 170 2.6 6.1 0.00 0.17 0.00 83 1009.6
20260508005306 58 183 1.7 2.6 0.00 0.17 0.00 84 1009.7
20260508004806 58 176 2.6 4.3 0.00 0.17 0.00 85 1009.7
20260508000804 57 175 1.7 2.6 0.00 0.17 0.00 90 1010.0
20260508000306 57 155 1.7 2.6 0.00 0.17 0.00 90 1009.9
20260507235306 57 126 0.9 2.6 0.00 0.17 0.00 90 1010.1
20260507234806 57 126 0.0 0.9 0.00 0.17 0.00 90 1010.1
20260507234304 58 126 0.0 1.7 0.00 0.17 0.00 90 1010.1
20260507233804 58 126 0.0 1.7 0.00 0.17 0.00 90 1010.2
20260507230309 59 140 3.5 6.1 0.00 0.17 0.00 90 1010.4
20260507222306 60 186 0.9 2.6 0.00 0.17 0.00 89 1010.8
20260507220306 60 219 2.6 4.3 0.00 0.17 0.00 88 1010.9
20260507215803 60 113 0.0 2.6 0.00 0.17 0.17 88 1010.9
20260507214304 60 113 0.0 0.0 0.00 0.17 0.17 88 1011.0
20260507212803 61 113 0.9 1.7 0.00 0.17 0.17 88 1010.7
20260507212306 61 113 0.9 1.7 0.00 0.17 0.17 88 1010.8
20260507210307 61 98 2.6 6.1 0.00 0.17 0.17 88 1010.7
20260507204806 62 38 2.6 5.2 0.00 0.17 0.17 87 1010.6
20260507204304 62 43 2.6 5.2 0.00 0.17 0.17 87 1010.5
20260507202804 61 58 4.3 6.1 0.00 0.17 0.17 87 1010.4
20260507202306 61 70 5.2 7.8 0.00 0.17 0.17 86 1010.2
20260507201807 61 34 3.5 7.0 0.00 0.17 0.17 86 1010.0
20260507195803 62 83 4.3 7.8 0.00 0.17 0.17 85 1009.9
20260507194806 63 87 4.3 8.7 0.00 0.17 0.17 84 1009.9
20260507194303 63 54 4.3 7.0 0.00 0.17 0.17 83 1009.8
20260507191807 63 21 1.7 2.6 0.00 0.17 0.17 83 1009.7
20260507191303 63 132 0.0 0.0 0.00 0.17 0.17 83 1009.7
20260507190306 63 132 0.0 2.6 0.00 0.17 0.17 83 1009.7
20260507185306 63 132 0.0 0.0 0.00 0.17 0.17 83 1009.5
20260507183307 63 213 1.7 2.6 0.01 0.17 0.17 84 1009.3
20260507182306 63 157 4.3 7.8 0.01 0.17 0.17 83 1009.3
20260507181806 63 147 2.6 4.3 0.01 0.17 0.17 83 1009.3
20260507180804 63 161 2.6 4.3 0.01 0.17 0.17 83 1009.0
20260507175306 63 206 4.3 10.4 0.01 0.17 0.17 83 1009.3
20260507174805 63 175 1.7 7.0 0.01 0.17 0.17 84 1009.4
20260507174304 63 136 1.7 5.2 0.01 0.17 0.17 84 1009.6
20260507172803 63 349 1.7 4.3 0.00 0.16 0.16 83 1009.9
20260507172307 63 349 1.7 2.6 0.00 0.16 0.16 83 1009.9
20260507165804 63 79 0.9 2.6 0.00 0.16 0.16 84 1009.9
20260507164304 62 79 2.6 5.2 0.02 0.16 0.16 84 1009.5
20260507163306 62 86 4.3 8.7 0.06 0.16 0.16 85 1009.4
20260507162307 61 77 5.2 7.8 0.13 0.16 0.16 86 1009.3
20260507161806 61 64 5.2 7.8 0.14 0.16 0.16 87 1009.5
20260507160305 60 48 5.2 8.7 0.16 0.16 0.16 87 1009.5
20260507155306 60 95 5.2 11.3 0.16 0.16 0.16 86 1009.3
20260507154806 60 83 5.2 12.2 0.16 0.16 0.16 85 1009.1
20260507154304 61 89 4.3 10.4 0.14 0.14 0.14 85 1009.4
20260507153803 61 132 5.2 10.4 0.12 0.12 0.12 84 1009.7
20260507153307 61 128 4.3 10.4 0.09 0.09 0.09 83 1009.9
20260507151806 62 131 2.6 10.4 0.02 0.02 0.02 80 1010.2
20260507145804 62 79 7.8 13.0 0.00 0.00 0.00 78 1009.8
20260507144304 63 83 10.4 17.4 0.00 0.00 0.00 78 1009.6
20260507143803 63 88 10.4 17.4 0.00 0.00 0.00 79 1009.7
20260507143305 62 85 10.4 17.4 0.00 0.00 0.00 80 1009.6
20260507142306 62 62 12.2 18.2 0.00 0.00 0.00 81 1009.4
20260507140804 63 65 12.2 18.2 0.00 0.00 0.00 80 1009.6
20260507140305 63 43 7.8 13.9 0.00 0.00 0.00 81 1009.6
20260507135804 62 56 8.7 14.8 0.00 0.00 0.00 80 1009.7
20260507135306 62 52 11.3 15.6 0.00 0.00 0.00 79 1009.8
20260507134303 62 39 11.3 17.4 0.00 0.00 0.00 80 1009.7
20260507132307 63 53 8.7 17.4 0.00 0.00 0.00 79 1009.9
20260507130804 62 62 12.2 18.2 0.00 0.00 0.00 80 1010.0
20260507130307 62 67 15.6 21.7 0.00 0.00 0.00 79 1010.0
20260507125306 62 67 17.4 22.6 0.00 0.00 0.00 79 1010.0
20260507124304 62 60 14.8 20.9 0.00 0.00 0.00 78 1010.2
20260507123307 62 78 13.9 20.0 0.00 0.00 0.00 77 1010.2
20260507120804 62 61 11.3 17.4 0.00 0.00 0.00 78 1010.5
20260507115804 62 68 12.2 19.1 0.00 0.00 0.00 78 1010.8
20260507113804 61 67 12.2 17.4 0.00 0.00 0.00 78 1010.8
20260507112804 61 63 13.0 19.1 0.00 0.00 0.00 77 1011.0
20260507112306 61 52 11.3 18.2 0.00 0.00 0.00 77 1010.9
20260507111303 62 53 9.6 14.8 0.00 0.00 0.00 77 1010.9
20260507110804 61 55 11.3 17.4 0.00 0.00 0.00 76 1010.9
20260507110305 61 85 12.2 17.4 0.00 0.00 0.00 75 1011.0
20260507103306 62 55 8.7 14.8 0.00 0.00 0.00 74 1011.3
20260507102804 62 62 9.6 13.9 0.00 0.00 0.00 71 1011.5
20260507101806 62 72 7.8 15.6 0.00 0.00 0.00 68 1011.6
20260507100803 62 80 12.2 17.4 0.00 0.00 0.00 69 1011.8
20260507094805 61 80 8.7 14.8 0.00 0.00 0.00 73 1011.8
20260507094304 60 75 8.7 14.8 0.00 0.00 0.00 74 1011.8
20260507093803 60 87 8.7 12.2 0.00 0.00 0.00 75 1011.8
20260507091806 58 80 7.8 11.3 0.00 0.01 0.00 76 1012.0
20260507090804 58 62 6.1 10.4 0.00 0.01 0.00 77 1012.0
20260507085306 58 102 1.7 6.1 0.00 0.01 0.00 77 1012.2
20260507084304 58 136 4.3 7.8 0.00 0.01 0.00 77 1012.3
20260507082306 58 93 5.2 8.7 0.00 0.02 0.00 77 1012.2
20260507081807 58 114 6.1 10.4 0.00 0.03 0.00 78 1012.4
20260507081304 58 129 4.3 8.7 0.00 0.04 0.00 78 1012.3
20260507080306 58 81 6.1 13.0 0.00 0.06 0.00 79 1012.3
20260507075306 57 111 5.2 10.4 0.00 0.06 0.00 80 1012.3
20260507074805 57 131 5.2 8.7 0.00 0.06 0.00 80 1012.3
20260507074303 56 94 5.2 11.3 0.00 0.06 0.00 80 1012.3
20260507072804 57 84 4.3 8.7 0.00 0.06 0.00 81 1012.3
20260507072306 57 99 4.3 8.7 0.00 0.06 0.00 83 1012.4
20260507071304 56 102 5.2 10.4 0.00 0.06 0.00 84 1012.4
20260507070804 55 103 4.3 8.7 0.00 0.06 0.00 84 1012.3
20260507064304 54 143 3.5 7.0 0.00 0.06 0.00 88 1012.4
20260507063804 54 109 2.6 7.0 0.00 0.06 0.00 88 1012.4
20260507063305 54 114 2.6 7.8 0.00 0.06 0.00 89 1012.4
20260507062805 53 121 5.2 7.0 0.00 0.06 0.00 89 1012.5
20260507062306 53 141 2.6 6.1 0.00 0.06 0.00 90 1012.6
20260507061806 53 145 2.6 6.1 0.00 0.06 0.00 90 1012.7
20260507061304 52 166 1.7 6.1 0.00 0.06 0.00 90 1012.7
20260507060306 52 154 1.7 2.6 0.00 0.06 0.00 90 1012.6
20260507055306 52 130 4.3 7.0 0.00 0.06 0.00 91 1012.5
20260507054806 52 107 4.3 6.1 0.00 0.06 0.00 91 1012.5
20260507053803 52 126 1.7 2.6 0.00 0.06 0.00 91 1012.5
20260507052306 51 160 2.6 4.3 0.00 0.06 0.00 91 1012.8
20260507051806 51 141 2.6 4.3 0.00 0.06 0.00 91 1012.8
20260507051304 51 162 2.6 2.6 0.00 0.06 0.00 91 1012.8
20260507050804 51 163 2.6 4.3 0.00 0.06 0.00 91 1012.8
20260507050307 51 155 2.6 4.3 0.00 0.06 0.00 91 1012.8
20260507045803 51 159 2.6 4.3 0.00 0.06 0.00 91 1012.8
20260507045306 51 165 2.6 4.3 0.00 0.06 0.00 91 1012.7